Findlay, OH

3:33 PM EST on January 22, 2017 (GMT -0500)
Findlay

Weather History for KFDY - January, 2012

Change the Weather History Date:

Friday, January 27, 2012

  Actual Average Record
Temperature  
Mean Temperature 36 °F -  
Max Temperature 39 °F 30 °F 60 °F (1999)
Min Temperature 32 °F 16 °F -11 °F (2003)
Degree Days  
Heating Degree Days 30    
Moisture  
Dew Point 32 °F    
Average Humidity 89    
Maximum Humidity 100    
Minimum Humidity 70    
Precipitation  
Precipitation 0.15 in - - ()
Sea Level Pressure  
Sea Level Pressure 29.74 in    
Wind  
Wind Speed 10 mph (West)    
Max Wind Speed 16 mph    
Max Gust Speed -    
Visibility 5 miles    
Events Rain , Snow    
Averages and records for this station are not official NWS values.
T = Trace of Precipitation, MM = Missing Value Source: NWS Daily Summary

Daily Weather History Graph

Daily Weather History Graph

Search for Another Location

Airport or City:

Trip Planner

Search our weather history database for the weather conditions in past years. The results will help you decide how hot, cold, wet, or windy it might be!

Date:

Astronomy

Jan. 27, 2012 Rise Set
Actual Time 7:50 AM EST 5:44 PM EST
Civil Twilight 7:20 AM EST 6:14 PM EST
Nautical Twilight 6:47 AM EST 6:47 PM EST
Astronomical Twilight 6:15 AM EST 7:20 PM EST
Moon 9:41 AM EST (1/27) 10:37 PM EST (1/27)
Length of Visible Light 10h 53m
Length of Day
9h 54m
Waxing Crescent, 19% of the Moon is Illuminated
Jan 27
Waxing Crescent
Jan 30
First Quarter
Feb 7
Full
Feb 14
Last Quarter
Feb 21
New

Hourly Weather History & Observations

Time (EST) Temp. Windchill Dew Point Humidity Pressure Visibility Wind Dir Wind Speed Gust Speed Precip Events Conditions
12:31 AM 33.8 °F 27.0 °F 32.0 °F 93% 29.49 in 2.0 mi NW 8.1 mph - 0.00 in Rain Light Rain
12:40 AM 33.8 °F 27.7 °F 32.0 °F 93% 29.48 in 1.2 mi NW 6.9 mph - 0.00 in Rain Light Rain
12:53 AM 33.1 °F 27.7 °F 33.1 °F 100% 29.49 in 2.0 mi NW 5.8 mph - 0.01 in Rain Light Rain
1:04 AM 33.8 °F 27.7 °F 33.8 °F 100% 29.49 in 3.0 mi WNW 6.9 mph - 0.00 in Rain Light Rain
1:53 AM 33.1 °F 24.4 °F 32.0 °F 96% 29.49 in 4.0 mi WNW 11.5 mph - 0.02 in   Overcast
2:53 AM 33.1 °F 25.5 °F 32.0 °F 96% 29.51 in 4.0 mi NW 9.2 mph - 0.00 in Rain Light Rain
3:48 AM 33.8 °F 25.8 °F 32.0 °F 93% 29.53 in 1.8 mi West 10.4 mph - 0.04 in Snow Light Snow
3:53 AM 33.1 °F 24.9 °F 32.0 °F 96% 29.55 in 1.5 mi West 10.4 mph - 0.05 in Snow Light Snow
4:53 AM 33.1 °F 23.9 °F 32.0 °F 96% 29.54 in 1.5 mi WNW 12.7 mph - 0.05 in Snow Light Snow
5:19 AM 33.8 °F 24.3 °F 32.0 °F 93% 29.56 in 2.5 mi West 13.8 mph - 0.00 in Snow Light Snow
5:53 AM 33.1 °F 23.9 °F 30.9 °F 92% 29.60 in 2.0 mi West 12.7 mph - 0.01 in Snow Light Snow
6:12 AM 33.8 °F 24.8 °F 32.0 °F 93% 29.61 in 3.0 mi West 12.7 mph - 0.00 in Snow Light Snow
6:24 AM 33.8 °F 25.3 °F 32.0 °F 93% 29.61 in 2.5 mi West 11.5 mph - 0.01 in Snow Light Snow
6:36 AM 33.8 °F 25.8 °F 32.0 °F 93% 29.62 in 3.0 mi West 10.4 mph - 0.01 in Snow Light Snow
6:53 AM 33.1 °F 24.4 °F 32.0 °F 96% 29.64 in 3.0 mi West 11.5 mph - 0.01 in   Overcast
8:09 AM 33.8 °F 25.3 °F 32.0 °F 93% 29.68 in 2.5 mi West 11.5 mph - N/A   Overcast
8:53 AM 34.0 °F 25.0 °F 32.0 °F 92% 29.73 in 2.5 mi West 12.7 mph - N/A   Overcast
9:22 AM 33.8 °F 24.8 °F 33.8 °F 100% 29.73 in 3.0 mi West 12.7 mph - N/A   Overcast
9:53 AM 34.0 °F 24.6 °F 32.0 °F 92% 29.77 in 3.0 mi West 13.8 mph - N/A   Overcast
10:12 AM 33.8 °F 25.3 °F 32.0 °F 93% 29.77 in 5.0 mi WNW 11.5 mph - N/A   Overcast
10:40 AM 35.6 °F 28.0 °F 32.0 °F 87% 29.78 in 5.0 mi West 10.4 mph - N/A   Overcast
10:53 AM 35.1 °F 27.9 °F 32.0 °F 89% 29.81 in 5.0 mi West 9.2 mph - N/A   Overcast
11:16 AM 33.8 °F 25.8 °F 33.8 °F 100% 29.81 in 2.0 mi West 10.4 mph - N/A   Overcast
11:24 AM 33.8 °F 25.8 °F 33.8 °F 100% 29.82 in 1.8 mi West 10.4 mph - N/A   Overcast
11:41 AM 35.6 °F 27.1 °F 33.8 °F 93% 29.82 in 2.5 mi West 12.7 mph - 0.00 in   Overcast
11:53 AM 35.1 °F 26.4 °F 33.1 °F 92% 29.83 in 3.0 mi West 12.7 mph - 0.00 in   Overcast
12:53 PM 37.0 °F 28.5 °F 34.0 °F 89% 29.84 in 4.0 mi West 13.8 mph - N/A   Overcast
1:19 PM 37.4 °F 28.2 °F 33.8 °F 87% 29.83 in 6.0 mi West 16.1 mph - N/A   Overcast
1:53 PM 37.9 °F 30.5 °F 30.9 °F 76% 29.84 in 8.0 mi West 11.5 mph - N/A   Overcast
2:15 PM 37.4 °F 29.8 °F 30.2 °F 75% 29.83 in 7.0 mi WNW 11.5 mph - N/A   Overcast
2:53 PM 39.9 °F 33.4 °F 32.0 °F 73% 29.86 in 9.0 mi West 10.4 mph - N/A   Mostly Cloudy
3:53 PM 39.9 °F 32.1 °F 30.9 °F 70% 29.89 in 10.0 mi West 13.8 mph - N/A   Scattered Clouds
4:53 PM 37.9 °F 31.5 °F 30.0 °F 73% 29.91 in 10.0 mi West 9.2 mph - N/A   Clear
5:53 PM 35.1 °F 29.3 °F 28.9 °F 78% 29.94 in 10.0 mi WSW 6.9 mph - N/A   Clear
6:53 PM 34.0 °F 28.0 °F 28.0 °F 79% 29.98 in 10.0 mi SW 6.9 mph - N/A   Clear
7:53 PM 33.1 °F 26.1 °F 28.0 °F 82% 30.00 in 10.0 mi SW 8.1 mph - N/A   Clear
8:53 PM 32.0 °F 24.8 °F 28.0 °F 85% 30.01 in 10.0 mi SSW 8.1 mph - N/A   Partly Cloudy
9:53 PM 33.1 °F 25.5 °F 28.0 °F 82% 30.01 in 10.0 mi SSW 9.2 mph - N/A   Clear
10:53 PM 32.0 °F 24.2 °F 28.0 °F 85% 29.99 in 8.0 mi SSW 9.2 mph - N/A   Clear
11:53 PM 32.0 °F 23.6 °F 28.0 °F 85% 29.99 in 7.0 mi SSW 10.4 mph - N/A   Partly Cloudy